| time (UTC) | temp F | wind direction | speed MPH | gust MPH | rain 1hr in | rain 24hr in | rain mn in | humidity % | barometer mb |
| 20260504200017 | 77 | 225 | 1.0 | 5.0 | 0.00 | 0.00 | 0.00 | 32 | 1010.3 |
| 20260504193037 | 76 | 90 | 1.0 | 3.0 | 0.00 | 0.00 | 0.00 | 33 | 1010.6 |
| 20260504190037 | 75 | 90 | 1.0 | 4.0 | 0.00 | 0.00 | 0.00 | 34 | 1011.2 |
| 20260504183036 | 74 | 248 | 1.0 | 5.0 | 0.00 | 0.00 | 0.00 | 33 | 1011.9 |
| 20260504180016 | 73 | 225 | 1.0 | 5.0 | 0.00 | 0.00 | 0.00 | 36 | 1012.1 |
| 20260504173016 | 73 | 225 | 1.0 | 5.0 | 0.00 | 0.00 | 0.00 | 34 | 1012.4 |
| 20260504043017 | 50 | 0.0 | 0.0 | 0.00 | 0.00 | 0.00 | 56 | 1015.6 | |
| 20260504040017 | 50 | 0.0 | 0.0 | 0.00 | 0.00 | 0.00 | 53 | 1015.6 | |
| 20260504033017 | 50 | 0.0 | 0.0 | 0.00 | 0.00 | 0.00 | 52 | 1015.4 | |
| 20260504030017 | 50 | 0.0 | 0.0 | 0.00 | 0.00 | 0.00 | 55 | 1015.1 | |
| 20260504023037 | 51 | 0.0 | 0.0 | 0.00 | 0.00 | 0.00 | 52 | 1015.0 | |
| 20260504020016 | 51 | 0.0 | 0.0 | 0.00 | 0.00 | 0.00 | 53 | 1015.0 | |
| 20260504013016 | 52 | 0.0 | 0.0 | 0.00 | 0.00 | 0.00 | 49 | 1014.8 | |
| 20260504010016 | 54 | 0.0 | 0.0 | 0.00 | 0.00 | 0.00 | 47 | 1014.6 | |
| 20260504003017 | 55 | 0.0 | 0.0 | 0.00 | 0.00 | 0.00 | 43 | 1014.5 | |
| 20260504000057 | 57 | 0.0 | 0.0 | 0.00 | 0.00 | 0.00 | 39 | 1014.1 | |
| 20260503233017 | 59 | 0.0 | 0.0 | 0.00 | 0.00 | 0.00 | 35 | 1014.0 | |
| 20260503230017 | 60 | 0.0 | 0.0 | 0.00 | 0.00 | 0.00 | 34 | 1013.8 | |
| 20260503223037 | 61 | 0.0 | 2.0 | 0.00 | 0.00 | 0.00 | 31 | 1013.9 | |
| 20260503220017 | 63 | 0.0 | 3.0 | 0.00 | 0.00 | 0.00 | 30 | 1014.0 | |
| 20260503213016 | 63 | 0.0 | 5.0 | 0.00 | 0.00 | 0.00 | 31 | 1014.1 | |
| 20260503210016 | 64 | 113 | 1.0 | 4.0 | 0.00 | 0.00 | 0.00 | 32 | 1014.1 |
| 20260503203017 | 63 | 0.0 | 3.0 | 0.00 | 0.00 | 0.00 | 33 | 1014.1 |